Location: Bun Machan
(52.1403°N, 7.3744°W)
Time: 19:12:07
(UTC+00:00)

Cosmos 1992 Rocket - Pass Details

Date: 14 July 2020
Orbit: 758 x 766 km, 74.0° (Epoch: 12 August)

Event Time Altitude Azimuth Distance (km) Brightness Sun altitude
Rises 01:05:59 0° 332° (NNW) 3,247 8.2 -15.9°
Reaches altitude 10° 01:08:22 10° 330° (NNW) 2,317 7.3 -15.9°
Maximum altitude 01:13:34 65° 250° (WSW) 847 4.1 -15.8°
Enters shadow 01:16:39 24° 175° (S) 1,533 5.0 -15.7°
